[[{"header":{"parameterUnit":"m.s-1","parameterCategory":1,"la1":30.2991,"la2":30.254,"lo1":-89.0895,"lo2":-89.0444,"dy":0.0017,"dx":0.0017,"nx":28,"ny":28,"refTime":"2023-07-24T03:00:00:Z","depth":0,"parameterNumber":2,"parameterNumberName":"U-component_of_WINDS"},"data":[0,0,0,0,0,0,0,0,0,0,0,0,0,0,0,0,0,0,0,0,0,0,0,0,0,0,0,0,0,0,0,0,0,0,0,0,0,0,0,0,0,0,0,0,0,0,0,0,0,0,0,0,0,0,0,0,0,0,-0.7063,-0.7061,0,-0.695,-0.6949,-0.6947,-0.6885,-0.6885,-0.6885,-0.6885,-0.6768,-0.6765,-0.6762,0,0,0,0,0,0,0,0,0,0,0,0,0,-0.7224,-0.7222,-0.7063,-0.7061,-0.706,-0.695,-0.6949,-0.6947,-0.6885,-0.6885,-0.6885,-0.6885,-0.6769,-0.6766,-0.6762,0,0,0,0,0,0,0,0,0,0,0,0,0,-0.7137,-0.7221,-0.7063,-0.7016,-0.701,-0.695,-0.6948,-0.6947,-0.6885,-0.6885,-0.6885,-0.6884,-0.677,-0.6766,-0.6762,-0.6739,0,0,-0.6748,-0.6746,0,0,0,0,0,0,0,0,-0.7142,-0.7131,-0.7024,-0.7019,-0.7013,-0.6931,-0.6963,-0.6877,-0.6885,-0.6933,-0.6885,-0.6884,-0.6823,-0.6814,-0.6793,-0.6734,-0.6729,-0.6748,-0.6745,-0.6743,-0.6742,0,0,0,0,0,0,0,-0.7148,-0.7136,-0.7018,-0.7023,-0.7016,-0.7,-0.6988,-0.6946,-0.688,-0.6929,-0.6924,-0.6911,-0.6819,-0.6798,-0.679,-0.6727,-0.6748,-0.6744,-0.6741,-0.6739,-0.6645,-0.6645,0,0,0,0,0,0,-0.7162,-0.7141,-0.7022,-0.7015,-0.7078,-0.6998,-0.6983,-0.6958,-0.6881,-0.6869,-0.6912,-0.6909,-0.6805,-0.6795,-0.6786,-0.6755,-0.6743,-0.6739,-0.6736,-0.6645,-0.6645,-0.6645,0,0,0,0,0,0,-0.7166,-0.7152,-0.7026,-0.7077,-0.7059,-0.6995,-0.6967,-0.6956,-0.6934,-0.6868,-0.6856,-0.6902,-0.6805,-0.6792,-0.6752,-0.675,-0.6737,-0.6733,-0.6645,-0.6645,-0.6645,-0.6694,0,0,0,0,0,0,-0.717,-0.7154,-0.7144,-0.7077,-0.7057,-0.6994,-0.6967,-0.6954,-0.6926,-0.6922,-0.6855,-0.6844,-0.6803,-0.6759,-0.6747,-0.6744,-0.6729,-0.6644,-0.6645,-0.6645,-0.6692,-0.6696,-0.6699,0,0,0,0,0,-0.7176,-0.7162,-0.7144,-0.713,-0.7044,-0.6994,-0.6983,-0.6937,-0.6927,-0.6917,-0.6875,-0.6846,-0.6752,-0.6755,-0.6742,-0.6737,-0.6644,-0.6645,-0.6645,-0.6691,-0.6695,-0.6699,0,0,0,0,0,0,-0.723,-0.7152,-0.7132,-0.7095,-0.7052,-0.6984,-0.697,-0.6943,-0.6901,-0.6899,-0.6843,-0.6829,-0.6794,-0.6761,-0.6766,-0.6712,-0.6695,-0.6693,-0.6735,-0.6738,-0.6741,-0.675,-0.6726,0,0,0,0,0,-0.7238,-0.7204,-0.7138,-0.7112,-0.7091,-0.7035,-0.7011,-0.698,-0.6933,-0.6914,-0.6869,-0.6824,-0.6784,-0.6759,-0.6719,-0.6687,-0.6672,-0.6677,-0.6681,-0.6684,-0.6683,-0.6664,-0.6666,-0.6646,-0.6646,-0.6646,0,0,-0.7254,-0.7207,-0.7189,-0.7122,-0.7085,-0.7051,-0.702,-0.6985,-0.696,-0.6908,-0.6868,-0.6834,-0.678,-0.6744,-0.6726,-0.6716,-0.6685,-0.6684,-0.6687,-0.6684,-0.6665,-0.6667,-0.6668,-0.6646,-0.6646,-0.6646,0,0,-0.7265,-0.7226,-0.72,-0.7164,-0.7108,-0.7071,-0.7065,-0.7001,-0.6977,-0.6935,-0.6897,-0.6866,-0.6798,-0.6762,-0.6735,-0.6734,-0.6706,-0.6722,-0.674,-0.6723,-0.6724,-0.6725,-0.6725,-0.6726,-0.6721,-0.6721,-0.6721,0,-0.7291,-0.7239,-0.7191,-0.7158,-0.713,-0.7084,-0.7058,-0.7025,-0.6959,-0.694,-0.693,-0.6846,-0.6806,-0.6762,-0.6762,-0.6741,-0.6733,-0.6729,-0.6728,-0.6728,-0.6729,-0.6728,-0.6729,-0.6724,-0.6723,-0.6723,-0.6723,0,-0.7274,-0.7238,-0.7224,-0.7163,-0.7133,-0.7104,-0.7052,-0.7028,-0.7,-0.6963,-0.6922,-0.6874,-0.6823,-0.681,-0.6782,-0.6762,-0.6758,-0.6738,-0.672,-0.6734,-0.6733,-0.6732,-0.6727,-0.6726,-0.6725,-0.6725,0,0,-0.7315,-0.7228,-0.7224,-0.7196,-0.7132,-0.7103,-0.7073,-0.7024,-0.7005,-0.6961,-0.6934,-0.6879,-0.6862,-0.6831,-0.6798,-0.6783,-0.6786,-0.6765,-0.6763,-0.6771,-0.6762,-0.6777,-0.6778,-0.6767,-0.6767,-0.6767,-0.6767,0,-0.7317,-0.726,-0.7217,-0.7176,-0.7143,-0.7099,-0.7072,-0.703,-0.6996,-0.6963,-0.6925,-0.6887,-0.6866,-0.6847,-0.683,-0.6789,-0.6783,-0.6789,-0.6742,-0.6741,-0.6757,-0.6777,-0.6792,-0.6795,-0.6766,-0.6766,-0.6766,0,-0.7311,-0.727,-0.7227,-0.7167,-0.7152,-0.7129,-0.7081,-0.705,-0.7002,-0.6978,-0.6945,-0.6911,-0.6877,-0.6863,-0.6816,-0.682,-0.6799,-0.6776,-0.6775,-0.6769,-0.6754,-0.6772,-0.6794,-0.6795,-0.6764,-0.6764,-0.6764,0,-0.7347,-0.728,-0.7246,-0.7223,-0.7153,-0.7138,-0.7108,-0.7059,-0.7033,-0.6992,-0.6974,-0.6929,-0.6905,-0.6871,-0.6826,-0.682,-0.6784,-0.6766,-0.6764,-0.6765,-0.6758,-0.6759,-0.6778,-0.6744,-0.6744,-0.6744,-0.6744,0,-0.7354,-0.7329,-0.7261,-0.724,-0.7211,-0.7162,-0.7135,-0.7101,-0.7058,-0.703,-0.6989,-0.6963,-0.6905,-0.6873,-0.6838,-0.6805,-0.6794,-0.6774,-0.6765,-0.6778,-0.678,-0.6763,-0.6762,-0.6744,-0.6744,-0.6744,-0.6744,0,-0.7388,-0.7341,-0.7301,-0.7238,-0.7222,-0.7203,-0.7149,-0.7127,-0.7091,-0.7056,-0.7045,-0.6988,-0.6948,-0.69,-0.6844,-0.6821,-0.6791,-0.6777,-0.6808,-0.6802,-0.6803,-0.6804,-0.6812,-0.681,-0.6778,-0.6778,-0.6778,0,-0.7395,-0.7375,-0.7311,-0.7289,-0.726,-0.7226,-0.7199,-0.715,-0.7124,-0.7069,-0.7054,-0.7011,-0.6973,-0.6911,-0.6865,-0.6823,-0.6808,-0.6813,-0.6801,-0.6815,-0.6809,-0.6811,-0.6809,-0.6817,-0.6817,-0.6818,-0.6818,0,-0.7414,-0.7392,-0.7356,-0.7312,-0.7282,-0.7245,-0.7206,-0.719,-0.7133,-0.7106,-0.7065,-0.7037,-0.698,-0.6938,-0.689,-0.6859,-0.6829,-0.6823,-0.682,-0.6833,-0.6852,-0.6842,-0.6817,-0.6823,-0.6822,-0.6822,-0.6822,-0.6821,-0.7435,-0.7416,-0.7368,-0.7329,-0.7295,-0.726,-0.7236,-0.7198,-0.7163,-0.7113,-0.7086,-0.7046,-0.6999,-0.6931,-0.6902,-0.687,-0.6859,-0.6855,-0.6854,-0.6854,-0.6858,-0.6857,-0.686,-0.686,-0.686,-0.686,-0.686,0,-0.7452,-0.7419,-0.7384,-0.7332,-0.7301,-0.7277,-0.7233,-0.7209,-0.7174,-0.7133,-0.7098,-0.7051,-0.7011,-0.6962,-0.6918,-0.6902,-0.6887,-0.6892,-0.6893,-0.6887,-0.687,-0.6877,-0.6905,-0.6905,-0.6905,-0.6905,-0.6905,-0.6905,-0.7458,-0.7424,-0.7397,-0.7346,-0.7313,-0.7274,-0.7251,-0.7219,-0.7186,-0.7136,-0.7102,-0.7071,-0.7027,-0.698,-0.6942,-0.6928,-0.6914,-0.6923,-0.6906,-0.6891,-0.6888,-0.6884,-0.689,-0.6921,-0.6921,-0.6926,-0.6926,-0.6926]},{"header":{"parameterUnit":"m.s-1","parameterCategory":1,"la1":30.2991,"la2":30.254,"lo1":-89.0895,"lo2":-89.0444,"dy":0.0017,"dx":0.0017,"nx":28,"ny":28,"refTime":"2023-07-24T03:00:00:Z","depth":0,"parameterNumber":3,"parameterNumberName":"V-component_of_WINDS"},"data":[0,0,0,0,0,0,0,0,0,0,0,0,0,0,0,0,0,0,0,0,0,0,0,0,0,0,0,0,0,0,0,0,0,0,0,0,0,0,0,0,0,0,0,0,0,0,0,0,0,0,0,0,0,0,0,0,0,0,1.6121,1.6121,0,1.6079,1.6079,1.6078,1.6102,1.6103,1.6104,1.6105,1.6057,1.6055,1.6052,0,0,0,0,0,0,0,0,0,0,0,0,0,1.6217,1.6215,1.6121,1.6121,1.612,1.6079,1.6079,1.6078,1.6101,1.6103,1.6104,1.6106,1.6058,1.6055,1.6052,0,0,0,0,0,0,0,0,0,0,0,0,0,1.6175,1.6214,1.6121,1.6127,1.6127,1.6079,1.6079,1.6078,1.6101,1.6103,1.6105,1.6106,1.6059,1.6055,1.6052,1.5995,0,0,1.6041,1.6039,0,0,0,0,0,0,0,0,1.6177,1.6171,1.6127,1.6127,1.6127,1.6098,1.6095,1.605,1.6101,1.6111,1.6105,1.6107,1.6069,1.6065,1.6053,1.5992,1.599,1.6041,1.6039,1.6037,1.6036,0,0,0,0,0,0,0,1.618,1.6173,1.6105,1.6126,1.6126,1.613,1.6126,1.6086,1.608,1.611,1.6112,1.6107,1.6069,1.6056,1.6052,1.599,1.6041,1.6038,1.6035,1.6034,1.5878,1.5876,0,0,0,0,0,0,1.6183,1.6176,1.6106,1.6103,1.6157,1.6127,1.6122,1.6105,1.6081,1.6079,1.6105,1.6108,1.6061,1.6056,1.605,1.598,1.6037,1.6034,1.6032,1.588,1.5877,1.5875,0,0,0,0,0,0,1.6185,1.6177,1.6108,1.614,1.6131,1.6123,1.6104,1.6103,1.609,1.6077,1.6076,1.6093,1.6062,1.6055,1.6008,1.5978,1.6032,1.6029,1.5882,1.5879,1.5876,1.5839,0,0,0,0,0,0,1.6188,1.6178,1.6157,1.6139,1.613,1.6068,1.6102,1.6101,1.6085,1.6088,1.6066,1.6064,1.6063,1.6013,1.6005,1.5974,1.6026,1.5885,1.5881,1.5877,1.5843,1.5835,1.5829,0,0,0,0,0,1.6191,1.6148,1.6156,1.6147,1.6104,1.6066,1.606,1.6062,1.6082,1.606,1.6052,1.6064,1.5984,1.6008,1.5999,1.5967,1.5887,1.5882,1.5878,1.5846,1.5837,1.5829,0,0,0,0,0,0,1.616,1.6145,1.6154,1.6104,1.6086,1.607,1.6043,1.6052,1.6027,1.6031,1.6033,1.6028,1.5978,1.5968,1.5996,1.5909,1.5938,1.5931,1.5917,1.5908,1.5901,1.5904,1.6023,0,0,0,0,0,1.6148,1.612,1.6108,1.6065,1.6055,1.6051,1.6034,1.6037,1.6018,1.601,1.5998,1.5978,1.5948,1.5928,1.59,1.5842,1.5836,1.5816,1.5809,1.5803,1.5796,1.5763,1.5752,1.586,1.586,1.5861,0,0,1.6122,1.611,1.6092,1.6058,1.6045,1.6014,1.6044,1.601,1.5987,1.6005,1.5959,1.595,1.5927,1.5874,1.585,1.5864,1.5765,1.5797,1.5792,1.5789,1.5757,1.5747,1.5738,1.5857,1.5858,1.5858,0,0,1.6057,1.6047,1.6008,1.5994,1.5974,1.5971,1.5962,1.5944,1.5939,1.5894,1.5906,1.5878,1.5827,1.5809,1.5794,1.5722,1.5731,1.5713,1.5674,1.5642,1.5633,1.5626,1.5597,1.5588,1.5707,1.5707,1.5707,0,1.6026,1.5981,1.5987,1.5952,1.5936,1.5952,1.5912,1.5898,1.5869,1.5856,1.5873,1.5808,1.5794,1.5736,1.5719,1.5707,1.5694,1.5714,1.5634,1.5627,1.562,1.5593,1.5583,1.5704,1.5705,1.5705,1.5705,0,1.5943,1.5912,1.5883,1.5856,1.5836,1.5799,1.5797,1.5776,1.5781,1.5776,1.5728,1.5713,1.5681,1.5668,1.5672,1.5609,1.5618,1.5635,1.5663,1.5607,1.5582,1.5572,1.5701,1.5702,1.5703,1.5703,0,0,1.5856,1.5833,1.5822,1.5809,1.5788,1.5763,1.5725,1.5695,1.5677,1.5656,1.5623,1.5579,1.5594,1.5576,1.5578,1.555,1.5491,1.5569,1.5569,1.5553,1.5419,1.5405,1.5393,1.5499,1.5497,1.5495,1.542,0,1.5789,1.5725,1.5728,1.5667,1.5637,1.5652,1.562,1.5602,1.5596,1.5568,1.5561,1.5529,1.5552,1.5541,1.5514,1.5504,1.5464,1.551,1.5465,1.5463,1.5468,1.538,1.5366,1.5295,1.541,1.5409,1.5407,0,1.5701,1.5678,1.5614,1.5596,1.5584,1.5554,1.5526,1.55,1.548,1.5477,1.5457,1.5464,1.5424,1.5455,1.5399,1.543,1.5412,1.5404,1.5402,1.5395,1.543,1.5369,1.5273,1.5262,1.5392,1.5394,1.5395,0,1.5641,1.5594,1.555,1.5539,1.5517,1.5496,1.5485,1.5467,1.5448,1.5423,1.5411,1.5381,1.5364,1.534,1.5338,1.5361,1.5279,1.5311,1.5274,1.5274,1.5254,1.5255,1.5151,1.5247,1.5247,1.5247,1.5247,0,1.5563,1.5523,1.5522,1.5495,1.5449,1.5453,1.5408,1.54,1.5383,1.5352,1.5364,1.5334,1.5334,1.5304,1.5302,1.5254,1.5246,1.5241,1.5241,1.5239,1.5239,1.5225,1.5229,1.5244,1.5245,1.5245,1.5246,0,1.5487,1.5486,1.5438,1.5422,1.5417,1.5384,1.5369,1.5342,1.5337,1.5298,1.5289,1.5281,1.5246,1.5242,1.52,1.5199,1.514,1.5146,1.5147,1.5147,1.5108,1.5111,1.499,1.4973,1.5082,1.5081,1.508,0,1.5437,1.5406,1.5387,1.5368,1.5357,1.5327,1.5308,1.531,1.5289,1.5263,1.5238,1.5205,1.5177,1.5119,1.5108,1.5076,1.508,1.504,1.5075,1.5073,1.5076,1.5077,1.5072,1.5032,1.5031,1.503,1.5029,0,1.5346,1.5347,1.532,1.5292,1.527,1.5248,1.5227,1.521,1.521,1.5186,1.5151,1.5129,1.5087,1.5052,1.502,1.5008,1.5017,1.5019,1.5008,1.5004,1.5005,1.5001,1.5125,1.5021,1.5021,1.5022,1.5023,1.5023,1.528,1.5253,1.5235,1.5204,1.5189,1.5169,1.5142,1.5134,1.5105,1.5072,1.5075,1.5035,1.5014,1.4972,1.4957,1.4925,1.4938,1.4923,1.4918,1.4914,1.4909,1.5012,1.4919,1.4919,1.492,1.492,1.492,0,1.5188,1.5177,1.5149,1.512,1.5095,1.5108,1.5086,1.5063,1.5029,1.5009,1.4982,1.494,1.4906,1.4893,1.4859,1.4835,1.4838,1.4826,1.4826,1.4823,1.49,1.4912,1.4824,1.4824,1.4824,1.4824,1.4824,1.4824,1.5137,1.5091,1.5089,1.5035,1.5024,1.4986,1.4972,1.4953,1.4937,1.489,1.4862,1.4855,1.4837,1.4802,1.477,1.4767,1.4753,1.4738,1.4736,1.4808,1.4818,1.4827,1.4838,1.4735,1.4735,1.4661,1.466,1.466]}]]